Aérodrome :
LOGIN :

S'inscrire | Disclaimer

   EN    FR    IT 

 










Légende :    VFR   VFR Marginal   IFR   IFR Intensif   IFR Très Intensif
Visi : 
Plafond : 
>= 8 km
>= 3000ft
5 à 8 km
1000 à 3000 ft
1500m à 5 km
500 à 1000 ft
800 à 1500m
200 à 500 ft
< 800m
< 200 ft
Symboles :   Orages  Brouillard  Fortes neiges  Fortes précipitations  Vent > 20 kt
SIGMETs :   Divers  Orages  Givrage  Turbulence  Onde Orograph.  Cendres Volcan.






- Altitude de l'aérodrome : 863 ft
- Code IATA : ZAZ


LEZG - Zaragoza Aragon

DERNIER METAR :
  • 191530Z 31007KT 250V360 CAVOK 15/02 Q1029

METARs EXPIRÉS :
  • 191500Z 32007KT 250V010 CAVOK 15/02 Q1029
  • 191430Z 31010KT 290V350 CAVOK 14/03 Q1029
  • 191400Z 32011KT 290V350 CAVOK 14/02 Q1030
  • 191330Z 32012KT CAVOK 14/02 Q1030
  • 191300Z 32013KT 280V350 CAVOK 14/02 Q1031

TAF TAF LEZG
Valide du 19 à 12h jusqu'au 20 à 12h UTC


191100Z 1912/2012 30014KT 9999 FEW050 TX15/1914Z TN02/2006Z
BECMG 1915/1918 VRB04KT



MET'MAP, la Météo Aéronautique d'un coup d'oeil ! - Copyright ORBIFLY Décembre 2007 - Disclaimer

ORBIFLY MET'MAP TEAM :

Programmation & Développement : Alexandra Zaïnal
Sur une idée originale de : Baudouin d'Aumeries
Assistance à la programmation : Marc-Olivier Méhu
Soutien technique & logistique : Manuel Goepfert

Contact : metmap@orbifly.com




SOURCES & CREDITS :

   NOAA